EW3232 Weather Reports


Display with metric or nautical units.
time (UTC)temp
F
wind
direction
speed
MPH
gust
MPH
rain 1hr
in
rain 24hr
in
rain mn
in
humidity
%
barometer
mb
20260506193034 53 281 1.0 4.0 0.00 0.01 0.00 82 1011.3
20260506191526 54 273 2.0 4.0 0.00 0.01 0.00 79 1011.1
20260506190109 55 258 2.0 3.0 0.00 0.01 0.00 78 1011.0
20260506183137 57 281 0.0 3.0 0.00 0.02 0.00 73 1010.6
20260506180121 60 333 0.0 2.0 0.00 0.02 0.00 65 1010.7
20260506174508 62 118 2.0 6.0 0.00 0.05 0.00 59 1010.6
20260506173002 62 125 3.0 5.0 0.00 0.05 0.00 57 1010.6
20260506171538 62 135 4.0 7.0 0.00 0.05 0.00 56 1010.5
20260506170021 63 64 3.0 7.0 0.00 0.05 0.00 56 1010.6
20260506164535 63 138 0.0 3.0 0.00 0.05 0.00 58 1010.7
20260506163053 62 133 3.0 5.0 0.00 0.05 0.00 57 1010.6
20260506161619 62 141 0.0 2.0 0.00 0.05 0.00 59 1010.8
20260506160108 60 129 1.0 6.0 0.00 0.05 0.00 63 1010.8
20260506154631 60 171 2.0 8.0 0.00 0.05 0.00 65 1010.9
20260506153144 60 156 4.0 8.0 0.00 0.05 0.00 67 1011.0
20260506151649 60 127 6.0 10.0 0.00 0.05 0.00 67 1011.0
20260506150115 60 177 4.0 12.0 0.00 0.05 0.00 67 1011.1
20260506144700 62 179 7.0 11.0 0.00 0.09 0.00 65 1011.0
20260506141509 62 128 3.0 9.0 0.00 0.09 0.00 60 1011.0
20260506134512 62 100 3.0 7.0 0.00 0.09 0.00 59 1011.1
20260506133038 63 129 3.0 8.0 0.00 0.09 0.00 59 1011.1
20260506131655 63 89 1.0 6.0 0.00 0.09 0.00 56 1011.1
20260506124504 61 75 7.0 10.0 0.00 0.09 0.00 62 1011.4
20260506123030 61 98 5.0 8.0 0.00 0.09 0.00 58 1011.5
20260506121547 62 93 4.0 11.0 0.00 0.09 0.00 60 1011.4
20260506120057 61 89 4.0 10.0 0.00 0.09 0.00 61 1011.4
20260506114622 63 137 7.0 12.0 0.00 0.17 0.00 53 1011.5
20260506113127 64 159 4.0 9.0 0.00 0.17 0.00 49 1011.5
20260506111639 63 178 9.0 11.0 0.00 0.17 0.00 48 1011.6
20260506110119 64 317 3.0 5.0 0.00 0.17 0.00 50 1011.8
20260506104639 62 243 2.0 8.0 0.00 0.19 0.00 51 1011.9
20260506103201 62 183 3.0 11.0 0.00 0.19 0.00 51 1011.8
20260506101532 61 84 2.0 10.0 0.00 0.19 0.00 53 1011.9
20260506100003 61 276 3.0 9.0 0.00 0.19 0.00 54 1012.0
20260506094614 60 211 7.0 14.0 0.00 0.19 0.00 54 1012.1
20260506093134 59 241 9.0 18.0 0.00 0.19 0.00 58 1011.9
20260506091533 59 239 9.0 18.0 0.00 0.19 0.00 56 1011.9
20260506090014 59 294 7.0 19.0 0.00 0.19 0.00 58 1011.8
20260506084532 58 238 9.0 18.0 0.00 0.19 0.00 59 1011.8
20260506083009 58 254 10.0 16.0 0.00 0.19 0.00 60 1011.8
20260506081532 57 240 6.0 12.0 0.00 0.19 0.00 61 1011.8
20260506073044 56 261 9.0 17.0 0.00 0.19 0.00 63 1011.7
20260506071613 56 251 3.0 18.0 0.00 0.19 0.00 65 1011.5
20260506070150 55 237 4.0 11.0 0.00 0.19 0.00 65 1011.5
20260506061653 53 239 4.0 11.0 0.00 0.19 0.00 70 1011.4
20260506060201 52 212 5.0 14.0 0.00 0.19 0.00 72 1011.2
20260506050138 48 307 0.0 6.0 0.00 0.19 0.00 79 1010.7
20260506044658 46 244 1.0 6.0 0.00 0.19 0.00 84 1011.0
20260506043015 46 352 0.0 3.0 0.00 0.19 0.00 84 1011.0
20260506041531 46 342 0.0 2.0 0.00 0.19 0.00 83 1011.0
20260506040027 47 352 1.0 4.0 0.00 0.19 0.00 82 1011.1
20260506034534 47 359 1.0 3.0 0.00 0.19 0.00 81 1011.2
20260506033040 48 347 1.0 4.0 0.00 0.19 0.00 80 1011.2
20260506031558 47 273 1.0 4.0 0.00 0.19 0.00 83 1011.3
20260506030032 46 312 1.0 2.0 0.00 0.19 0.00 85 1011.3
20260506024554 46 23 1.0 4.0 0.00 0.19 0.00 86 1011.4
20260506023053 47 289 0.0 2.0 0.00 0.19 0.00 84 1011.2
20260506021608 48 306 0.0 4.0 0.00 0.19 0.00 83 1011.1
20260506020048 48 306 0.0 3.0 0.00 0.19 0.00 83 1011.1
20260506014616 46 261 2.0 7.0 0.00 0.19 0.00 87 1011.2
20260506013119 46 297 0.0 3.0 0.00 0.19 0.00 88 1011.2
20260506011633 46 29 0.0 2.0 0.00 0.19 0.00 88 1011.1
20260506010113 46 283 0.0 2.0 0.00 0.19 0.00 89 1011.3
20260506004635 46 283 1.0 6.0 0.00 0.19 0.00 89 1011.4
20260506003145 46 262 1.0 4.0 0.00 0.19 0.00 89 1011.7
20260506001651 47 279 1.0 2.0 0.00 0.19 0.00 89 1012.0
20260505231527 51 210 1.0 4.0 0.00 0.19 0.00 80 1012.1
20260505230031 52 266 0.0 2.0 0.00 0.19 0.00 78 1012.0
20260505224539 53 306 3.0 11.0 0.00 0.19 0.00 77 1012.0
20260505223104 53 284 8.0 17.0 0.00 0.19 0.00 77 1012.0
20260505221626 53 280 9.0 19.0 0.00 0.19 0.00 76 1011.6
20260505220010 53 287 11.0 19.0 0.00 0.19 0.19 77 1011.9
20260505214651 53 286 10.0 14.0 0.00 0.19 0.19 78 1012.0
20260505213120 51 262 4.0 10.0 0.00 0.19 0.19 87 1012.1
20260505211628 51 242 1.0 6.0 0.00 0.19 0.19 87 1012.2
20260505210016 52 274 2.0 9.0 0.00 0.19 0.19 88 1012.0
20260505204633 51 279 2.0 6.0 0.00 0.19 0.19 89 1012.0
20260505203044 52 247 2.0 7.0 0.00 0.19 0.19 89 1011.8
20260505201510 52 268 2.0 7.0 0.00 0.19 0.19 91 1011.6
20260505200134 51 244 0.0 3.0 0.01 0.19 0.19 91 1011.5
20260505194541 52 260 0.0 4.0 0.01 0.19 0.19 89 1011.0